Location: Allison Elementary School
(34.0784°N, 117.7317°W)
Time: 13:59:52
(UTC+00:00)

ATLAS 5 CENTAUR R/B - Pass Details

Date: 15 November 2019
Orbit: 563 x 1096 km, 63.3° (Epoch: 29 November)

Event Time Altitude Azimuth Distance (km) Brightness Sun altitude
Rises 02:22:10 0° 329° (NNW) 3,442 5.7 -19.6°
Reaches altitude 10° 02:24:31 10° 329° (NNW) 2,577 5.0 -20.1°
Maximum altitude 02:30:39 90° 20° (NNE) 992 2.5 -21.4°
Drops below altitude 10° 02:37:32 10° 151° (SSE) 2,874 4.7 -22.8°
Sets 02:40:17 0° 151° (SSE) 3,861 5.4 -23.3°
